Weather Roundup
Issued by NWS Springfield, MO

Home | Current Version | Previous Version | Text Only | Print | Product List | Glossary Off
Versions: 1 2 3 4 5 6 7 8 9 10 11 12 13 14 15 16 17 18 19 20 21 22 23 24 25 26 27 28 29 30 31 32 33 34 35 36 37 38 39 40 41 42 43 44 45 46 47 48 49 50

000
NZUS99 KSGF 020310
HRRSGF

HOURLY WEATHER
NATIONAL WEATHER SERVICE SPRINGFIELD MO
1000 PM CDT TUE SEP 01 2015

......SGF CWA......

CITY           SKY/WX    TMP DP  RH WIND       PRES   REMARKS
SPRINGFIELD    CLEAR     75  68  78 S6        30.09R
JOPLIN         CLEAR     76  65  68 SE6       30.06R
WEST PLAINS    CLEAR     73  69  87 CALM      30.13R
ROLLA          CLEAR     76  69  79 S7        30.08S
OSAGE BEACH    CLEAR     79  68  69 S3        30.08R
BRANSON        PTCLDY    77  64  65 CALM      30.11R

......SURROUNDING SGF CWA......

CITY           SKY/WX    TMP DP  RH WIND       PRES   REMARKS
CHANUTE        CLEAR     76  69  79 SE9       30.03R
PARSONS        CLEAR     76  70  82 SE3       30.04R
COFFEYVILLE    CLEAR     75  69  81 S8        30.02R
EMPORIA        CLEAR     77  66  68 S13       30.01R
GROVE OK       CLEAR     73  70  88 CALM      30.06S
ROGERS AR      CLEAR     76  68  76 SE7       30.10R
SILOAM SPRINGS CLEAR     75  63  64 CALM      30.07R
HARRISON AR    CLEAR     73  64  73 S6        30.11R
NEAR YELLVILLE CLEAR     75  66  73 CALM      30.07R

......KANSAS AND MISSOURI......

CITY           SKY/WX    TMP DP  RH WIND       PRES   REMARKS
KANSAS CTY INT CLEAR     73  66  78 S12       30.02R
DOWNTOWN KC    CLEAR     81  67  62 S7        30.01R
COLUMBIA       CLEAR     75  69  81 SE6       30.07R
SEDALIA        CLEAR     75  68  78 S6        30.07R
ST JOSEPH      CLEAR     77  67  71 S8        30.00R
ST LOUIS       CLEAR     84  69  60 S7        30.09R
SPIRIT OF STL  CLEAR     78  73  84 S5        30.07R
KIRKSVILLE     PTCLDY    74  69  85 S7        30.05R
WICHITA        PTCLDY    81  67  62 SE17      29.98R
TOPEKA         CLEAR     78  67  68 SE10      29.99R
OLATHE         CLEAR     73  68  84 S8        30.03R

......TENNESSEE......

CITY           SKY/WX    TMP DP  RH WIND       PRES   REMARKS
MEMPHIS        CLOUDY    81  70  69 S3        30.09R
NASHVILLE      PTCLDY    79  66  64 CALM      30.10S

......ARKANSAS.......

CITY           SKY/WX    TMP DP  RH WIND       PRES   REMARKS
FAYETTEVILLE   CLEAR     69  69 100 CALM      30.09R
FT SMITH       CLEAR     81  63  54 CALM      30.03R
LITTLE ROCK    MOCLDY    81  70  69 CALM      30.06R

......OKLAHOMA.......

CITY           SKY/WX    TMP DP  RH WIND       PRES   REMARKS
TULSA          CLEAR     78  70  76 SE7       30.00R
PONCA CITY     CLEAR     82  67  60 SE15      30.00R
MCALESTER      CLEAR     82  63  52 VRB6      30.04R
OKLAHOMA CITY  PTCLDY    77  63  61 SE8       30.02R

......IOWA............

CITY           SKY/WX    TMP DP  RH WIND       PRES   REMARKS
DES MOINES     PTCLDY    77  68  73 S6        29.97S
QUAD CITIES    PTCLDY    79  69  71 S7        30.01R

......ILLINOIS........

CITY           SKY/WX    TMP DP  RH WIND       PRES   REMARKS
QUINCY         CLEAR     78  69  73 S6        30.05R
CHICAGO        PTCLDY    80  73  79 S10       30.02R




USA.gov is the U.S. government's official web portal to all federal, state and local government web resources and services.